GW3529 Weather Reports


time (UTC)temp
C
wind
direction
speed
KPH
gust
KPH
rain 1hr
cm
rain 24hr
cm
rain mn
cm
humidity
%
barometer
mb
20260504081503 13 219 3.2 14.5 0.00 0.13 0.00 43 1001.9
20260504044538 13 244 0.0 4.8 0.00 0.13 0.13 49 1003.6
20260504043038 13 242 1.6 6.4 0.00 0.13 0.13 50 1003.6
20260504041537 13 242 6.4 14.5 0.00 0.13 0.13 50 1003.7
20260504040044 13 209 12.9 17.7 0.00 0.13 0.13 50 1003.6
20260504034541 13 210 14.5 17.7 0.00 0.13 0.13 52 1003.6
20260504033038 13 210 9.7 22.5 0.00 0.13 0.13 56 1003.7
20260504031543 13 197 12.9 16.1 0.00 0.13 0.13 60 1003.6
20260504030035 13 169 9.7 16.1 0.00 0.13 0.13 60 1003.5
20260504024534 13 168 8.0 14.5 0.00 0.13 0.13 59 1003.3
20260504023033 15 173 11.3 16.1 0.00 0.13 0.13 57 1003.2
20260504021533 15 171 12.9 17.7 0.00 0.13 0.13 56 1003.2
20260504020033 14 162 12.9 16.1 0.00 0.13 0.13 58 1003.3
20260504014530 15 176 9.7 19.3 0.00 0.13 0.13 56 1003.4
20260504013035 16 178 11.3 22.5 0.00 0.13 0.13 53 1003.6
20260504011529 16 178 17.7 30.6 0.00 0.13 0.13 50 1003.7
20260504010025 17 166 14.5 25.7 0.00 0.13 0.13 50 1003.9
20260504004526 17 167 9.7 20.9 0.00 0.13 0.13 49 1004.2
20260504003028 18 176 14.5 24.1 0.00 0.13 0.13 46 1004.4
20260504001521 18 168 14.5 19.3 0.03 0.13 0.13 48 1004.7
20260504000045 17 166 14.5 19.3 0.03 0.13 0.13 53 1005.0
20260503234514 17 149 9.7 22.5 0.03 0.13 0.13 51 1005.2
20260503233012 17 205 16.1 24.1 0.03 0.13 0.13 53 1005.5
20260503231510 16 207 12.9 16.1 0.00 0.10 0.10 55 1005.7
20260503230008 16 223 12.9 19.3 0.00 0.10 0.10 56 1006.0
20260503224505 15 218 12.9 19.3 0.00 0.10 0.10 60 1006.5
20260503223002 14 229 8.0 24.1 0.00 0.10 0.10 65 1006.8
20260503221601 13 216 9.7 16.1 0.00 0.10 0.10 69 1007.3
20260503221501 13 213 9.7 16.1 0.00 0.10 0.10 72 1007.4
20260503220059 13 200 8.0 14.5 0.00 0.10 0.10 74 1007.5
20260503214557 13 202 3.2 12.9 0.03 0.10 0.10 75 1007.5
20260503213100 12 206 9.7 14.5 0.10 0.10 0.10 77 1007.9
20260503211617 12 155 3.2 8.0 0.10 0.10 0.10 77 1008.0
20260503210053 12 155 3.2 12.9 0.10 0.10 0.10 74 1008.5
20260503204549 15 5 11.3 25.7 0.08 0.08 0.08 57 1008.9
20260503203105 16 198 8.0 11.3 0.00 0.00 0.00 47 1008.1
20260503201548 17 180 4.8 16.1 0.00 0.00 0.00 45 1007.7
20260503200045 17 176 14.5 20.9 0.00 0.00 0.00 45 1007.9
20260503194550 17 193 9.7 16.1 0.00 0.00 0.00 45 1008.2
20260503193041 17 250 4.8 8.0 0.00 0.00 0.00 46 1008.3
20260503191541 16 355 4.8 14.5 0.00 0.00 0.00 47 1008.5
20260503190040 16 17 14.5 22.5 0.00 0.00 0.00 45 1008.8
20260503184536 16 350 14.5 29.0 0.00 0.00 0.00 50 1008.8
20260503183033 17 340 14.5 32.2 0.00 0.00 0.00 45 1009.4
20260503181532 17 36 4.8 17.7 0.00 0.00 0.00 41 1009.2
20260503180032 18 40 12.9 24.1 0.00 0.00 0.00 38 1009.4
20260503174529 18 344 17.7 29.0 0.00 0.00 0.00 39 1009.5
20260503173042 17 30 6.4 24.1 0.00 0.00 0.00 41 1009.8
20260503171535 17 24 20.9 27.4 0.00 0.00 0.00 39 1010.0